{"data":{"norad_id":53170,"intl_designator":"2022-083AQ","name":"STARLINK-4095","alt_names":[],"object_type":"PAYLOAD","status":"ACTIVE","operator":null,"country":"US","launch_date":"2022-07-17","launch_site_code":"AFETR","launch_vehicle":null,"mission":null,"orbit_class":"UNKNOWN","rcs_meters":null,"size_class":null,"mass_kg":null,"dimensions":null,"purposes":["comms"],"wikipedia_slug":null,"has_3d_model":false,"image_url":null,"decayed_at":null,"tle_current":{"epoch":"2026-05-24T19:52:36.878304Z","epoch_age_seconds":83189,"freshness":"FRESH","line1":"1 53170U 22083AQ  26144.82820461  .00000627  00000+0  57426-4 0  9991","line2":"2 53170  53.2134 177.2736 0001024  81.0720 279.0388 15.08850781212920","mean_motion":15.08850781,"eccentricity":0.0001024,"inclination_deg":53.2134,"raan_deg":177.2736,"arg_perigee_deg":81.072,"mean_anomaly_deg":279.0388,"bstar":5.7426e-5,"rev_number":21292,"period_min":95.436872759918,"perigee_km":539.00204837888,"apogee_km":540.41882353377,"semimajor_km":6917.8474359563,"source":"CELESTRAK","updated_at":"2026-05-25T13:38:17.323778Z"}}}